Showing default

QIANFAN-68, 62798

Orbit data source: Space-Track

QIANFAN-68, 62798 is a Chinese payload satellite in LEO that was launched on Thu, 23 Jan 2025 UTC via a CHANG ZHENG 6A launch vehicle from the Taiyaun Space Center, China (TSC). Payload-class satellites include a variety of spacecraft equipped with specific instruments for various scientific and technological missions. These include communications satellites like Starlink; space stations such as the ISS; scientific satellites like the Hubble; Earth observation satellites from companies like Planet Labs, Umbra, and HawkEye 360; GPS; miniature CubeSats for education and research; and military/defense satellites.

Loading next visibility...
Identifier
62798, 2025-016P
Orbit
LEO
Country
Flag of CNCN / PRC
Related business
Manufacturer
SECM
Mission
Operational Commercial Communications
Bus & Motor
QIANFAN, Unknown motor
Mass
267 kg wet, ~267 kg dry
Launch date (UTC)
2025-01-23 (9 months ago)
Launch vehicle
CHANG ZHENG 6A
Launch site
Taiyaun Space Center, China (TSC)
Object type
Payload
Rocket body
Debris
Shape & HBR
Box + 1 Pan, 1.3 m
Radar Cross Section
13.200 m², Large (>1 m²)

Expand to show TLE details & history
Last TLE update: 1 day ago

TLE from 1 day ago
0 QIANFAN-68
1 62798U 25016P   25306.46421851  .00000065  00000-0  81691-4 0  9993
2 62798  88.9743 107.2594 0016750  99.8999 260.4044 13.50973352 41804
Epoch: 2025-11-02T11:08Z
TLE epoch observation values (Epoch: 2025-11-02T11:08:28.479Z)
Latitude
0.00001°
Longitude
-101.83883°
Altitude
1,073.733 km
Speed
7.314 km/s
True Right ascension
07h 09m 02s
True Declination
0° 00' 00"
Sunlit
Object was in daylight at epoch
Visualization orbit readout
Latitude
Unknown
Longitude
Unknown
Altitude
Unknown
Speed
Unknown
Apparent Right ascension
Unknown
Apparent Declination
Unknown
Sunlit
N/A
Visualization observer readout
Local Sidereal Time
14:41:30
Azimuth
Unknown
Elevation
Unknown
Doppler factor
Unknown
Orbital elements
Apogee altitude
1,078.199 km
Perigee altitude
1,053.262 km
Semi-major axis
7,443.868 km
Eccentricity
0.00168
Inclination
88.9743°
RAAN
107.2594°
Arg. of periapsis
99.8999°
True anomaly
260.21521°
Mean anomaly
260.4044°
Eccentric anomaly
260.3098°
Mean motion
3.37944 °/min
Orbital period
106.53 mins
BSTAR
0.000081691
Loading maneuver chart data...
Computing Atmospheric mass density...
Loading historical data...
Loading historical data...
Loading historical data...
Loading historical data...
Loading historical data...
Loading historical data...
Loading historical data...

Documentation

Showing up to 5 results
|